Flag for Australia Weather past 2 weeks in Mackay, Queensland, Australia

Now
68 °F

Mild.


Feels Like: 68 °F
Forecast: 54 / 74 °F
Wind: 5 mph from Northeast

Location: Mackay Mo

Current Time: Aug 3, 2015 at 7:25:02 PM

Latest Report: Aug 3, 2015 at 6:00 PM


Visibility: N/A

Pressure: 30.03 "Hg

Humidity: 92%

Dew point: 65 °F

Location of MackayLocation

Historic Weather in Mackay — Graph

°F

Mackay temperature yesterday

Maximum temperature yesterday: 73 °F (at 1:00 PM)
Minimum temperature yesterday: 57 °F (at 6:00 AM)
Average temperature yesterday: 65 °F

Past Weeks' High & Low Weather Summary

 TemperatureHumidityPressure
High74 °F (Jul 26, 1:00 PM)100% (Jul 21, 10:00 AM)30.32 "Hg (Jul 21, 10:00 AM)
Low57 °F (Aug 2, 6:00 AM)45% (Jul 28, 12:00 PM)30.02 "Hg (Aug 3, 4:00 PM)
Average66 °F87%30.18 "Hg
* Reported Jul 19 6:00 PM — Aug 3 6:00 PM, Mackay, Weather by CustomWeather, © 2015

Note: Actual official high and low records may vary slightly from our data, if they occured in-between our weather recording intervals... More about our weather records

Advertising

Mackay weather history for previous 24 hours

 ConditionsComfort  
Time TempWeatherWind HumidityBarometerVisibility
6:00 PM
Mon, Aug 3
68 °FMild.5 mph92%30.03 "HgN/A
4:00 PM73 °FMild.6 mph77%30.02 "HgN/A
3:00 PM74 °FHaze.7 mph74%30.03 "Hg12 mi
1:00 PM70 °FMild.8 mph80%30.06 "HgN/A
12:00 PM70 °FHaze.8 mph79%30.09 "Hg12 mi
10:00 AM72 °FMild.5 mph74%30.13 "HgN/A
9:00 AM68 °FHaze.7 mph82%30.14 "Hg11 mi
7:00 AM60 °FCool.7 mph98%30.10 "HgN/A
6:00 AM61 °FPassing clouds.6 mph97%30.10 "HgN/A
4:00 AM62 °FCool.7 mph97%30.08 "HgN/A
3:00 AM62 °FLow clouds.7 mph97%30.09 "HgN/A
1:00 AM61 °FCool.7 mph96%30.11 "HgN/A
12:00 AM61 °FPassing clouds.7 mph97%30.13 "HgN/A
10:00 PM
Sun, Aug 2
63 °FMild.6 mph97%30.14 "HgN/A
9:00 PM64 °FMild.5 mph97%30.14 "HgN/A
7:00 PM66 °FMild.5 mph92%30.12 "HgN/A
Weather by CustomWeather, © 2015

See weather overviewHow to use our weather pages